Mount Pleasant, SC

8:58 AM EST on December 07, 2016 (GMT -0500)
Mount Pleasant

Weather History for KLRO - October, 2012

Change the Weather History Date:

Friday, October 5, 2012

  Actual Average (KCHS) Record (KCHS)
Temperature  
Mean Temperature 75 °F 70 °F  
Max Temperature 84 °F 80 °F 94 °F (1954)
Min Temperature 66 °F 61 °F 42 °F (1974)
Degree Days  
Heating Degree Days 0 1  
Month to date heating degree days 5  
Since 1 July heating degree days 8  
Cooling Degree Days 10 6  
Month to date cooling degree days 33  
Year to date cooling degree days 2171  
Growing Degree Days 25 (Base 50)    
Moisture  
Dew Point 68 °F    
Average Humidity 83    
Maximum Humidity 100    
Minimum Humidity 51    
Precipitation  
Precipitation 0.00 in 0.15 in 1.79 in (1964)
Month to date precipitation 0.80  
Year to date precipitation 42.54  
Sea Level Pressure  
Sea Level Pressure 30.11 in    
Wind  
Wind Speed 2 mph (NE)    
Max Wind Speed 8 mph    
Max Gust Speed -    
Visibility 9 miles    
Events Rain    
T = Trace of Precipitation, MM = Missing Value Source: NWS Daily Summary

Daily Weather History Graph

Daily Weather History Graph

Search for Another Location

Airport or City:

Trip Planner

Search our weather history database for the weather conditions in past years. The results will help you decide how hot, cold, wet, or windy it might be!

Date:

Astronomy

Oct. 05, 2012 Rise Set
Actual Time 7:16 AM EDT 6:57 PM EDT
Civil Twilight 6:51 AM EDT 7:22 PM EDT
Nautical Twilight 6:23 AM EDT 7:51 PM EDT
Astronomical Twilight 5:54 AM EDT 8:19 PM EDT
Moon 10:34 PM EDT (10/5) 12:07 PM EDT (10/5)
Length of Visible Light 12h 30m
Length of Day
11h 41m
Waning Gibbous, 74% of the Moon is Illuminated
Oct 5
Waning Gibbous
Oct 8
Last Quarter
Oct 15
New
Oct 21
First Quarter
Oct 29
Full

Hourly Weather History & Observations

Time (EDT) Temp. Heat Index Dew Point Humidity Pressure Visibility Wind Dir Wind Speed Gust Speed Precip Events Conditions
12:15 AM 71.6 °F - 71.6 °F 100% 30.18 in 3.0 mi Calm Calm - N/A   Partly Cloudy
12:35 AM 71.6 °F - 71.6 °F 100% 30.18 in 6.0 mi North 3.5 mph - N/A   Clear
12:55 AM 71.6 °F - 71.6 °F 100% 30.17 in 7.0 mi Calm Calm - N/A   Clear
1:15 AM 71.6 °F - 69.8 °F 94% 30.17 in 5.0 mi Calm Calm - N/A   Clear
1:35 AM 71.6 °F - 71.6 °F 100% 30.16 in 9.0 mi North 3.5 mph - N/A   Clear
1:55 AM 71.6 °F - 69.8 °F 94% 30.17 in 10.0 mi NNW 3.5 mph - N/A   Clear
2:15 AM 71.6 °F - 69.8 °F 94% 30.16 in 9.0 mi Calm Calm - N/A   Clear
2:35 AM 71.6 °F - 69.8 °F 94% 30.16 in 9.0 mi North 3.5 mph - N/A   Clear
2:55 AM 71.6 °F - 69.8 °F 94% 30.15 in 9.0 mi Calm Calm - N/A   Clear
3:15 AM 71.6 °F - 69.8 °F 94% 30.15 in 10.0 mi Calm Calm - N/A   Clear
3:35 AM 71.6 °F - 69.8 °F 94% 30.15 in 9.0 mi Calm Calm - N/A   Clear
4:15 AM 69.8 °F - 69.8 °F 100% 30.15 in 7.0 mi Calm Calm - N/A   Clear
4:35 AM 69.8 °F - 69.8 °F 100% 30.15 in 8.0 mi Calm Calm - N/A   Clear
4:55 AM 69.8 °F - 69.8 °F 100% 30.14 in 10.0 mi NNE 4.6 mph - N/A   Clear
5:15 AM 69.8 °F - 69.8 °F 100% 30.14 in 10.0 mi North 3.5 mph - N/A   Clear
5:35 AM 69.8 °F - 69.8 °F 100% 30.15 in 9.0 mi NNE 3.5 mph - N/A   Clear
5:55 AM 69.8 °F - 69.8 °F 100% 30.16 in 9.0 mi Calm Calm - N/A   Clear
6:15 AM 69.8 °F - 68.0 °F 94% 30.15 in 8.0 mi North 3.5 mph - N/A   Clear
6:35 AM 69.8 °F - 68.0 °F 94% 30.15 in 8.0 mi Calm Calm - N/A   Partly Cloudy
6:55 AM 69.8 °F - 68.0 °F 94% 30.15 in 9.0 mi North 3.5 mph - N/A   Clear
7:15 AM 69.8 °F - 68.0 °F 94% 30.15 in 9.0 mi Calm Calm - N/A   Clear
7:35 AM 69.8 °F - 68.0 °F 94% 30.15 in 8.0 mi North 4.6 mph - N/A   Clear
7:55 AM 69.8 °F - 68.0 °F 94% 30.15 in 9.0 mi North 3.5 mph - N/A   Clear
8:15 AM 69.8 °F - 68.0 °F 94% 30.15 in 9.0 mi North 3.5 mph - N/A   Clear
8:35 AM 69.8 °F - 68.0 °F 94% 30.16 in 9.0 mi North 4.6 mph - N/A   Clear
8:55 AM 71.6 °F - 68.0 °F 88% 30.16 in 10.0 mi North 3.5 mph - N/A   Clear
9:15 AM 71.6 °F - 68.0 °F 88% 30.16 in 10.0 mi North 4.6 mph - N/A   Clear
9:35 AM 73.4 °F - 68.0 °F 83% 30.15 in 10.0 mi NNE 4.6 mph - N/A   Clear
9:55 AM 75.2 °F - 68.0 °F 78% 30.15 in 8.0 mi NNE 6.9 mph - N/A   Clear
10:15 AM 75.2 °F - 68.0 °F 78% 30.14 in 10.0 mi North 6.9 mph - N/A   Clear
10:35 AM 77.0 °F - 68.0 °F 74% 30.15 in 10.0 mi NNE 4.6 mph - N/A   Clear
11:15 AM 78.8 °F - 66.2 °F 65% 30.15 in 10.0 mi North 5.8 mph - N/A   Clear
11:35 AM 80.6 °F 82.7 °F 66.2 °F 61% 30.14 in 10.0 mi NE 3.5 mph - N/A   Clear
11:55 AM 80.6 °F 82.3 °F 64.4 °F 58% 30.14 in 10.0 mi NNE 5.8 mph - N/A Rain Light Rain
12:15 PM 80.6 °F 82.3 °F 64.4 °F 58% 30.14 in 10.0 mi ENE 4.6 mph - N/A   Clear
12:35 PM 82.4 °F 83.4 °F 62.6 °F 51% 30.13 in 10.0 mi East 3.5 mph - N/A   Light Drizzle
1:15 PM 82.4 °F 83.9 °F 64.4 °F 54% 30.12 in 10.0 mi Calm Calm - N/A   Light Drizzle
1:35 PM 82.4 °F 83.9 °F 64.4 °F 54% 30.11 in 10.0 mi East 6.9 mph - N/A   Light Drizzle
1:55 PM 84.2 °F 85.6 °F 64.4 °F 51% 30.11 in 10.0 mi ESE 8.1 mph - N/A   Light Drizzle
2:15 PM 82.4 °F 84.6 °F 66.2 °F 58% 30.10 in 10.0 mi SE 5.8 mph - N/A   Light Drizzle
2:35 PM 80.6 °F 82.7 °F 66.2 °F 61% 30.09 in 10.0 mi SE 8.1 mph - N/A   Light Drizzle
2:55 PM 82.4 °F 83.9 °F 64.4 °F 54% 30.09 in 10.0 mi ESE 6.9 mph - N/A   Light Drizzle
3:15 PM 80.6 °F 82.7 °F 66.2 °F 61% 30.08 in 10.0 mi ESE 8.1 mph - N/A   Light Drizzle
3:35 PM 80.6 °F 82.7 °F 66.2 °F 61% 30.08 in 10.0 mi East 5.8 mph - N/A   Light Drizzle
3:55 PM 80.6 °F 82.7 °F 66.2 °F 61% 30.07 in 10.0 mi SE 6.9 mph - N/A   Light Drizzle
4:15 PM 80.6 °F 82.7 °F 66.2 °F 61% 30.06 in 10.0 mi East 8.1 mph - N/A   Light Drizzle
4:35 PM 78.8 °F - 66.2 °F 65% 30.06 in 10.0 mi East 5.8 mph - N/A   Clear
4:55 PM 80.6 °F 82.7 °F 66.2 °F 61% 30.05 in 10.0 mi SE 4.6 mph - N/A Rain Light Rain
5:15 PM 78.8 °F - 66.2 °F 65% 30.05 in 10.0 mi ESE 3.5 mph - N/A   Clear
5:35 PM 78.8 °F - 66.2 °F 65% 30.05 in 10.0 mi ESE 4.6 mph - N/A   Clear
5:55 PM 77.0 °F - 68.0 °F 74% 30.05 in 10.0 mi East 4.6 mph - N/A   Clear
6:15 PM 75.2 °F - 68.0 °F 78% 30.04 in 10.0 mi East 3.5 mph - N/A   Clear
6:35 PM 75.2 °F - 68.0 °F 78% 30.04 in 10.0 mi Calm Calm - N/A   Clear
6:55 PM 73.4 °F - 68.0 °F 83% 30.04 in 9.0 mi Calm Calm - N/A   Clear
7:15 PM 71.6 °F - 68.0 °F 88% 30.03 in 10.0 mi Calm Calm - N/A   Clear
7:35 PM 71.6 °F - 68.0 °F 88% 30.03 in 10.0 mi Calm Calm - N/A   Clear
7:55 PM 69.8 °F - 68.0 °F 94% 30.04 in 10.0 mi Calm Calm - N/A   Clear
8:15 PM 69.8 °F - 68.0 °F 94% 30.04 in 10.0 mi Calm Calm - N/A   Clear
8:35 PM 69.8 °F - 68.0 °F 94% 30.04 in 9.0 mi Calm Calm - N/A   Clear
8:55 PM 69.8 °F - 68.0 °F 94% 30.04 in 9.0 mi Calm Calm - N/A   Clear
9:15 PM 69.8 °F - 66.2 °F 88% 30.05 in 8.0 mi Calm Calm - N/A   Clear
9:35 PM 69.8 °F - 66.2 °F 88% 30.05 in 8.0 mi Calm Calm - N/A   Clear
9:55 PM 68.0 °F - 66.2 °F 94% 30.05 in 7.0 mi Calm Calm - N/A   Clear
10:15 PM 68.0 °F - 66.2 °F 94% 30.04 in 6.0 mi Calm Calm - N/A   Clear
10:35 PM 68.0 °F - 66.2 °F 94% 30.05 in 6.0 mi Calm Calm - N/A   Clear
10:55 PM 66.2 °F - 66.2 °F 100% 30.05 in 5.0 mi Calm Calm - N/A   Clear
11:15 PM 66.2 °F - 66.2 °F 100% 30.04 in 5.0 mi Calm Calm - N/A   Clear
11:35 PM 68.0 °F - 66.2 °F 94% 30.05 in 5.0 mi Calm Calm - N/A   Clear
11:55 PM 66.2 °F - 66.2 °F 100% 30.04 in 5.0 mi Calm Calm - N/A   Clear